[[{"header":{"parameterUnit":"m.s-1","parameterCategory":1,"la1":30.2991,"la2":30.254,"lo1":-89.0895,"lo2":-89.0444,"dy":0.0017,"dx":0.0017,"nx":28,"ny":28,"refTime":"2023-09-29T21:00:00:Z","depth":0,"parameterNumber":2,"parameterNumberName":"U-component_of_WINDS"},"data":[0,0,0,0,0,0,0,0,0,0,0,0,0,0,0,0,0,0,0,0,0,0,0,0,0,0,0,0,0,0,0,0,0,0,0,0,0,0,0,0,0,0,0,0,0,0,0,0,0,0,0,0,0,0,0,0,0,0,-5.6373,-5.6374,0,-5.6394,-5.6395,-5.6395,-5.6283,-5.628,-5.6276,-5.6273,-5.6298,-5.6301,-5.6305,0,0,0,0,0,0,0,0,0,0,0,0,0,-5.624,-5.6243,-5.6373,-5.6374,-5.6374,-5.6394,-5.6395,-5.6395,-5.6283,-5.6279,-5.6276,-5.6272,-5.6297,-5.6301,-5.6305,0,0,0,0,0,0,0,0,0,0,0,0,0,-5.6283,-5.6244,-5.6373,-5.6321,-5.6316,-5.6394,-5.6395,-5.6395,-5.6284,-5.6279,-5.6274,-5.627,-5.6295,-5.63,-5.6306,-5.6437,0,0,-5.6323,-5.6325,0,0,0,0,0,0,0,0,-5.6281,-5.6288,-5.6328,-5.6324,-5.6319,-5.6331,-5.6356,-5.6409,-5.6285,-5.6296,-5.6273,-5.6268,-5.6313,-5.6317,-5.6331,-5.6438,-5.6439,-5.6323,-5.6327,-5.6329,-5.633,0,0,0,0,0,0,0,-5.6278,-5.6287,-5.6382,-5.6329,-5.6324,-5.6297,-5.6298,-5.6366,-5.6332,-5.6295,-5.6287,-5.6291,-5.631,-5.6326,-5.6331,-5.6439,-5.6323,-5.6328,-5.6331,-5.6333,-5.6657,-5.6662,0,0,0,0,0,0,-5.6282,-5.6285,-5.6381,-5.6382,-5.6288,-5.6303,-5.6304,-5.6332,-5.6331,-5.6326,-5.6295,-5.6286,-5.6319,-5.6325,-5.6332,-5.6486,-5.6329,-5.6334,-5.6337,-5.6652,-5.6658,-5.6664,0,0,0,0,0,0,-5.6279,-5.6291,-5.638,-5.6331,-5.6341,-5.6311,-5.6343,-5.6335,-5.6352,-5.633,-5.6324,-5.6318,-5.6316,-5.6324,-5.6412,-5.6486,-5.6336,-5.6341,-5.6646,-5.6654,-5.6661,-5.6797,0,0,0,0,0,0,-5.6276,-5.6291,-5.6339,-5.6333,-5.6344,-5.6459,-5.6348,-5.6339,-5.6361,-5.6349,-5.635,-5.6346,-5.6313,-5.6404,-5.6417,-5.6491,-5.6346,-5.6639,-5.6649,-5.6659,-5.6786,-5.6808,-5.6828,0,0,0,0,0,-5.6271,-5.6377,-5.6342,-5.6355,-5.6403,-5.6464,-5.647,-5.6428,-5.6367,-5.6417,-5.6403,-5.6346,-5.6475,-5.6414,-5.6428,-5.6504,-5.6634,-5.6646,-5.6658,-5.6776,-5.6804,-5.6827,0,0,0,0,0,0,-5.6392,-5.6375,-5.6337,-5.6443,-5.6456,-5.6445,-5.6505,-5.6459,-5.6489,-5.6477,-5.6425,-5.6426,-5.6524,-5.6522,-5.6455,-5.6632,-5.6544,-5.656,-5.663,-5.6656,-5.6676,-5.6675,-5.635,0,0,0,0,0,-5.6431,-5.6481,-5.6463,-5.6559,-5.6567,-5.6536,-5.656,-5.6527,-5.6539,-5.6544,-5.6536,-5.6551,-5.6595,-5.6625,-5.6664,-5.6784,-5.6785,-5.6844,-5.6865,-5.6882,-5.6897,-5.6963,-5.699,-5.6703,-5.6703,-5.6703,0,0,-5.6513,-5.6509,-5.6543,-5.6583,-5.6589,-5.6643,-5.6541,-5.6601,-5.6641,-5.6553,-5.6636,-5.6632,-5.6644,-5.675,-5.6796,-5.6752,-5.6976,-5.6898,-5.6912,-5.6917,-5.6978,-5.7005,-5.703,-5.6711,-5.671,-5.6709,0,0,-5.6688,-5.669,-5.6771,-5.6779,-5.6789,-5.6768,-5.6788,-5.6784,-5.6778,-5.6861,-5.6796,-5.6844,-5.692,-5.6932,-5.6949,-5.7132,-5.7081,-5.7146,-5.7257,-5.7322,-5.7345,-5.7365,-5.7432,-5.7457,-5.716,-5.716,-5.716,0,-5.6788,-5.6866,-5.6818,-5.6884,-5.6904,-5.6827,-5.6909,-5.692,-5.6943,-5.696,-5.6909,-5.7005,-5.7008,-5.7117,-5.7162,-5.7177,-5.7199,-5.7146,-5.7345,-5.7365,-5.7382,-5.7446,-5.7472,-5.7168,-5.7167,-5.7166,-5.7166,0,-5.6989,-5.7044,-5.7108,-5.7133,-5.716,-5.7234,-5.72,-5.7233,-5.7199,-5.7183,-5.727,-5.7271,-5.731,-5.7333,-5.7299,-5.7438,-5.741,-5.7354,-5.7265,-5.7419,-5.7478,-5.7502,-5.718,-5.7177,-5.7174,-5.7172,0,0,-5.7241,-5.724,-5.7264,-5.7275,-5.7282,-5.7324,-5.7396,-5.7434,-5.7465,-5.7484,-5.7544,-5.7611,-5.756,-5.7578,-5.7546,-5.7603,-5.7751,-5.7539,-5.7539,-5.758,-5.7907,-5.7951,-5.798,-5.7717,-5.7722,-5.7725,-5.7907,0,-5.7415,-5.7536,-5.7496,-5.762,-5.7671,-5.7599,-5.7662,-5.7674,-5.7662,-5.7705,-5.7692,-5.7742,-5.7668,-5.768,-5.7733,-5.7722,-5.7816,-5.7708,-5.7775,-5.7778,-5.7775,-5.8011,-5.8057,-5.8228,-5.7929,-5.7933,-5.7936,0,-5.7633,-5.7661,-5.779,-5.779,-5.7811,-5.7867,-5.79,-5.7942,-5.7955,-5.7942,-5.7965,-5.7921,-5.7993,-5.7903,-5.8004,-5.7931,-5.7956,-5.7955,-5.7961,-5.7967,-5.7867,-5.8025,-5.8281,-5.8308,-5.7972,-5.7969,-5.7966,0,-5.7807,-5.7877,-5.7964,-5.7975,-5.7977,-5.8019,-5.8022,-5.803,-5.8056,-5.8085,-5.8102,-5.814,-5.8161,-5.8192,-5.816,-5.8097,-5.8266,-5.8173,-5.826,-5.8261,-5.8299,-5.8298,-5.8566,-5.8313,-5.8313,-5.8312,-5.8312,0,-5.8006,-5.8088,-5.8042,-5.8096,-5.8186,-5.8141,-5.8232,-5.8227,-5.8236,-5.8288,-5.8228,-5.8279,-5.8233,-5.8281,-5.8257,-5.8345,-5.8354,-5.8348,-5.8341,-5.8354,-5.8356,-5.8371,-5.8359,-5.8319,-5.8318,-5.8316,-5.8315,0,-5.8215,-5.8187,-5.8278,-5.8272,-5.8273,-5.8341,-5.8337,-5.8387,-5.8371,-5.8439,-5.8452,-5.8428,-5.8481,-5.8453,-5.8507,-5.8491,-5.8606,-5.8582,-5.8602,-5.8596,-5.8685,-5.8678,-5.8974,-5.9011,-5.8733,-5.8736,-5.8738,0,-5.8345,-5.8406,-5.8408,-5.8439,-5.8446,-5.8496,-5.8523,-5.8481,-5.8511,-5.8532,-5.8581,-5.8629,-5.8665,-5.8754,-5.8742,-5.8784,-5.8762,-5.8863,-5.8768,-5.8781,-5.8766,-5.8764,-5.8771,-5.8882,-5.8886,-5.8888,-5.889,0,-5.8578,-5.8562,-5.8602,-5.8639,-5.8672,-5.8699,-5.8721,-5.875,-5.8708,-5.8746,-5.88,-5.8828,-5.8884,-5.8934,-5.897,-5.8975,-5.8928,-5.892,-5.8943,-5.8958,-5.8968,-5.8966,-5.8656,-5.8914,-5.8912,-5.891,-5.8909,-5.8908,-5.8753,-5.8805,-5.8815,-5.8863,-5.8875,-5.8898,-5.8945,-5.8936,-5.8979,-5.9022,-5.8995,-5.9059,-5.9072,-5.9117,-5.9128,-5.9179,-5.9139,-5.9171,-5.9179,-5.9188,-5.9202,-5.8959,-5.9185,-5.9184,-5.9184,-5.9183,-5.9182,0,-5.8985,-5.8988,-5.9032,-5.9065,-5.9104,-5.9054,-5.9076,-5.9112,-5.9169,-5.9185,-5.9222,-5.9285,-5.9333,-5.9326,-5.937,-5.9413,-5.9392,-5.9426,-5.9423,-5.9426,-5.9234,-5.9211,-5.9442,-5.9442,-5.9442,-5.9442,-5.9442,-5.9442,-5.911,-5.9197,-5.9183,-5.9276,-5.9279,-5.934,-5.9358,-5.9379,-5.9392,-5.9465,-5.9505,-5.9499,-5.9507,-5.9552,-5.9595,-5.9591,-5.9612,-5.9654,-5.9643,-5.9464,-5.9439,-5.9414,-5.9393,-5.9658,-5.9659,-5.9831,-5.9833,-5.9834]},{"header":{"parameterUnit":"m.s-1","parameterCategory":1,"la1":30.2991,"la2":30.254,"lo1":-89.0895,"lo2":-89.0444,"dy":0.0017,"dx":0.0017,"nx":28,"ny":28,"refTime":"2023-09-29T21:00:00:Z","depth":0,"parameterNumber":3,"parameterNumberName":"V-component_of_WINDS"},"data":[0,0,0,0,0,0,0,0,0,0,0,0,0,0,0,0,0,0,0,0,0,0,0,0,0,0,0,0,0,0,0,0,0,0,0,0,0,0,0,0,0,0,0,0,0,0,0,0,0,0,0,0,0,0,0,0,0,0,-0.7705,-0.7705,0,-0.7724,-0.7724,-0.7724,-0.7695,-0.7694,-0.7692,-0.7692,-0.7714,-0.7715,-0.7717,0,0,0,0,0,0,0,0,0,0,0,0,0,-0.7645,-0.7646,-0.7705,-0.7705,-0.7705,-0.7724,-0.7724,-0.7724,-0.7695,-0.7693,-0.7692,-0.7691,-0.7713,-0.7715,-0.7717,0,0,0,0,0,0,0,0,0,0,0,0,0,-0.7668,-0.7647,-0.7705,-0.7693,-0.7692,-0.7724,-0.7724,-0.7725,-0.7695,-0.7693,-0.7692,-0.769,-0.7712,-0.7715,-0.7717,-0.7763,0,0,-0.7724,-0.7725,0,0,0,0,0,0,0,0,-0.7667,-0.7671,-0.7694,-0.7694,-0.7693,-0.7705,-0.7711,-0.7737,-0.7695,-0.7694,-0.7691,-0.769,-0.7712,-0.7714,-0.7722,-0.7764,-0.7765,-0.7724,-0.7726,-0.7727,-0.7727,0,0,0,0,0,0,0,-0.7665,-0.767,-0.7713,-0.7695,-0.7694,-0.7687,-0.7689,-0.7716,-0.7712,-0.7694,-0.7692,-0.7694,-0.7711,-0.7719,-0.7722,-0.7765,-0.7724,-0.7726,-0.7728,-0.7729,-0.7846,-0.7848,0,0,0,0,0,0,-0.7665,-0.7668,-0.7712,-0.7713,-0.7676,-0.7689,-0.7691,-0.7703,-0.7711,-0.7711,-0.7696,-0.7693,-0.7716,-0.7719,-0.7722,-0.7778,-0.7727,-0.7729,-0.773,-0.7845,-0.7847,-0.7848,0,0,0,0,0,0,-0.7664,-0.7669,-0.7711,-0.769,-0.7695,-0.7692,-0.7705,-0.7704,-0.7712,-0.7712,-0.7712,-0.7704,-0.7715,-0.7719,-0.7753,-0.7778,-0.773,-0.7732,-0.7842,-0.7845,-0.7848,-0.7888,0,0,0,0,0,0,-0.7662,-0.7669,-0.7686,-0.7691,-0.7696,-0.7741,-0.7707,-0.7706,-0.7716,-0.7712,-0.7721,-0.772,-0.7714,-0.775,-0.7755,-0.778,-0.7734,-0.784,-0.7844,-0.7847,-0.7885,-0.7892,-0.7898,0,0,0,0,0,-0.766,-0.7697,-0.7687,-0.7692,-0.7717,-0.7742,-0.7746,-0.7737,-0.7718,-0.7735,-0.7736,-0.772,-0.7774,-0.7753,-0.7759,-0.7786,-0.7839,-0.7843,-0.7846,-0.7882,-0.789,-0.7898,0,0,0,0,0,0,-0.7696,-0.7697,-0.7686,-0.7725,-0.7734,-0.7737,-0.7759,-0.7746,-0.7761,-0.7757,-0.7746,-0.7749,-0.7785,-0.7788,-0.7765,-0.7831,-0.7803,-0.7808,-0.7828,-0.7836,-0.7843,-0.7842,-0.7736,0,0,0,0,0,-0.7708,-0.7728,-0.7728,-0.7763,-0.7767,-0.7762,-0.7773,-0.7765,-0.7774,-0.7778,-0.7781,-0.779,-0.7809,-0.7822,-0.784,-0.7884,-0.7886,-0.7905,-0.7911,-0.7917,-0.7923,-0.7948,-0.7956,-0.7861,-0.7861,-0.7861,0,0,-0.7734,-0.7737,-0.7751,-0.777,-0.7776,-0.7797,-0.7766,-0.779,-0.7806,-0.7782,-0.7814,-0.7816,-0.7826,-0.7866,-0.7883,-0.787,-0.7949,-0.7922,-0.7926,-0.7929,-0.7952,-0.7961,-0.797,-0.7864,-0.7863,-0.7863,0,0,-0.7793,-0.7797,-0.7827,-0.7833,-0.7841,-0.7838,-0.7845,-0.785,-0.785,-0.7882,-0.7865,-0.7884,-0.7916,-0.7925,-0.7933,-0.7994,-0.7981,-0.8,-0.8036,-0.806,-0.8068,-0.8075,-0.8099,-0.8107,-0.8005,-0.8005,-0.8005,0,-0.7825,-0.7857,-0.7844,-0.7869,-0.7879,-0.7856,-0.7887,-0.7894,-0.7908,-0.7916,-0.7899,-0.794,-0.7945,-0.7987,-0.8002,-0.8008,-0.8018,-0.8,-0.8068,-0.8074,-0.808,-0.8103,-0.8112,-0.8007,-0.8007,-0.8007,-0.8007,0,-0.7896,-0.7918,-0.7941,-0.7955,-0.7967,-0.7995,-0.7987,-0.8,-0.7991,-0.7989,-0.8023,-0.8027,-0.8046,-0.8054,-0.8046,-0.8095,-0.8087,-0.8069,-0.8042,-0.8092,-0.8113,-0.8122,-0.8011,-0.801,-0.8009,-0.8009,0,0,-0.7981,-0.7986,-0.7995,-0.8002,-0.8009,-0.8026,-0.8053,-0.807,-0.8083,-0.8093,-0.8116,-0.8144,-0.8127,-0.8137,-0.8129,-0.815,-0.82,-0.813,-0.813,-0.8145,-0.8257,-0.8272,-0.8283,-0.819,-0.8192,-0.8193,-0.8257,0,-0.8042,-0.8088,-0.8077,-0.8123,-0.8144,-0.8122,-0.8146,-0.8153,-0.8152,-0.817,-0.8168,-0.8189,-0.8164,-0.817,-0.819,-0.819,-0.8223,-0.8185,-0.8214,-0.8215,-0.8215,-0.8293,-0.831,-0.837,-0.8265,-0.8266,-0.8267,0,-0.8119,-0.8132,-0.818,-0.8184,-0.8193,-0.8214,-0.823,-0.8246,-0.8254,-0.8252,-0.8262,-0.8249,-0.8277,-0.8247,-0.8285,-0.826,-0.827,-0.8272,-0.8274,-0.8279,-0.8247,-0.8303,-0.8389,-0.8399,-0.828,-0.8279,-0.8278,0,-0.818,-0.8208,-0.8241,-0.8247,-0.8252,-0.8268,-0.8271,-0.8277,-0.8288,-0.8301,-0.8308,-0.8325,-0.8334,-0.8347,-0.834,-0.8318,-0.8381,-0.835,-0.8381,-0.8382,-0.8398,-0.8398,-0.849,-0.84,-0.84,-0.84,-0.84,0,-0.8251,-0.8282,-0.8268,-0.8289,-0.8323,-0.831,-0.8344,-0.8345,-0.835,-0.8371,-0.8352,-0.8372,-0.836,-0.8379,-0.8373,-0.8407,-0.8411,-0.8411,-0.841,-0.8414,-0.8415,-0.8424,-0.8421,-0.8402,-0.8402,-0.8401,-0.8401,0,-0.8325,-0.8317,-0.8352,-0.8353,-0.8354,-0.838,-0.8381,-0.8401,-0.8397,-0.8424,-0.8429,-0.8424,-0.8446,-0.8439,-0.8462,-0.8458,-0.8502,-0.8494,-0.85,-0.8499,-0.8532,-0.853,-0.8635,-0.8649,-0.8548,-0.8549,-0.8549,0,-0.8372,-0.8396,-0.8399,-0.8412,-0.8416,-0.8436,-0.8447,-0.8434,-0.8446,-0.8457,-0.8476,-0.8495,-0.8511,-0.8546,-0.8545,-0.8563,-0.8557,-0.8592,-0.856,-0.8564,-0.8561,-0.8561,-0.8564,-0.86,-0.8601,-0.8602,-0.8603,0,-0.8458,-0.8453,-0.8469,-0.8484,-0.8498,-0.8509,-0.8519,-0.853,-0.8518,-0.8533,-0.8555,-0.8567,-0.859,-0.8611,-0.8626,-0.863,-0.8616,-0.8613,-0.8622,-0.8629,-0.8632,-0.8633,-0.8521,-0.8611,-0.8611,-0.861,-0.8609,-0.8609,-0.8522,-0.8542,-0.8548,-0.8567,-0.8573,-0.8582,-0.8601,-0.8599,-0.8617,-0.8635,-0.8625,-0.8651,-0.8658,-0.8678,-0.8684,-0.8704,-0.8691,-0.8703,-0.8706,-0.871,-0.8716,-0.8626,-0.8706,-0.8706,-0.8706,-0.8706,-0.8706,0,-0.8609,-0.8611,-0.8629,-0.8643,-0.8658,-0.864,-0.865,-0.8665,-0.8687,-0.8694,-0.871,-0.8735,-0.8754,-0.8754,-0.8772,-0.8789,-0.8783,-0.8794,-0.8795,-0.8796,-0.8725,-0.8717,-0.8799,-0.8799,-0.8799,-0.8799,-0.8799,-0.8799,-0.8656,-0.869,-0.8685,-0.8722,-0.8724,-0.8748,-0.8756,-0.8765,-0.8771,-0.8799,-0.8815,-0.8814,-0.8819,-0.8837,-0.8855,-0.8854,-0.8863,-0.8878,-0.8875,-0.881,-0.8801,-0.8792,-0.8785,-0.8879,-0.8879,-0.8945,-0.8945,-0.8946]}]]